Time,TemperatureF,DewpointF,PressureIn,WindDirection,WindDirectionDegrees,WindSpeedMPH,WindSpeedGustMPH,Humidity,HourlyPrecipIn,Conditions,Clouds,dailyrainin,SolarRadiationWatts/m^2,SoftwareType,DateUTC
2013-08-25 00:00:00,67.4,62.1,30.18,North,32767,-999.0,0.0,83,0.00,,,0.00,0,Wunderground v.1.15,2013-08-25 04:00:00,
2013-08-25 00:05:00,67.4,62.4,30.18,North,32767,-999.0,0.0,84,0.00,,,0.00,0,Wunderground v.1.15,2013-08-25 04:05:00,
2013-08-25 00:10:00,67.4,63.1,30.18,North,32767,-999.0,0.0,86,0.00,,,0.00,0,Wunderground v.1.15,2013-08-25 04:10:00,
2013-08-25 00:15:00,67.3,63.0,30.18,North,32767,-999.0,0.0,86,0.00,,,0.00,0,Wunderground v.1.15,2013-08-25 04:15:00,
2013-08-25 00:25:00,66.9,62.6,30.18,North,32767,-999.0,0.0,86,0.00,,,0.00,0,Wunderground v.1.15,2013-08-25 04:25:00,
2013-08-25 00:30:00,66.8,62.8,30.18,North,32767,-999.0,0.0,87,0.00,,,0.00,0,Wunderground v.1.15,2013-08-25 04:30:00,
2013-08-25 00:35:00,66.8,62.8,30.18,North,32767,-999.0,0.0,87,0.00,,,0.00,0,Wunderground v.1.15,2013-08-25 04:35:00,
2013-08-25 00:40:00,66.6,62.9,30.18,North,32767,-999.0,0.0,88,0.00,,,0.00,0,Wunderground v.1.15,2013-08-25 04:40:00,
2013-08-25 00:50:00,66.4,62.7,30.18,North,32767,-999.0,0.0,88,0.00,,,0.00,0,Wunderground v.1.15,2013-08-25 04:50:00,
2013-08-25 01:00:00,66.1,62.8,30.18,North,32767,-999.0,0.0,89,0.00,,,0.00,0,Wunderground v.1.15,2013-08-25 05:00:00,
2013-08-25 01:05:00,66.1,62.8,30.18,North,32767,-999.0,0.0,89,0.00,,,0.00,0,Wunderground v.1.15,2013-08-25 05:05:00,
2013-08-25 01:10:00,66.0,62.7,30.18,North,32767,-999.0,0.0,89,0.00,,,0.00,0,Wunderground v.1.15,2013-08-25 05:10:00,
2013-08-25 01:15:00,66.0,63.0,30.18,North,32767,-999.0,0.0,90,0.00,,,0.00,0,Wunderground v.1.15,2013-08-25 05:15:00,
2013-08-25 01:25:00,65.8,62.8,30.18,North,32767,-999.0,0.0,90,0.00,,,0.00,0,Wunderground v.1.15,2013-08-25 05:25:00,
2013-08-25 01:35:00,65.6,62.6,30.18,North,32767,-999.0,0.0,90,0.00,,,0.00,0,Wunderground v.1.15,2013-08-25 05:35:00,
2013-08-25 01:40:00,65.5,62.5,30.18,North,32767,-999.0,0.0,90,0.00,,,0.00,0,Wunderground v.1.15,2013-08-25 05:40:00,
2013-08-25 01:50:00,65.5,62.8,30.18,North,32767,-999.0,0.0,91,0.00,,,0.00,0,Wunderground v.1.15,2013-08-25 05:50:00,
2013-08-25 02:00:00,65.5,62.8,30.18,North,32767,-999.0,0.0,91,0.00,,,0.00,0,Wunderground v.1.15,2013-08-25 06:00:00,
2013-08-25 02:05:00,65.5,62.8,30.18,North,32767,-999.0,0.0,91,0.00,,,0.00,0,Wunderground v.1.15,2013-08-25 06:05:00,
2013-08-25 02:15:00,65.5,62.5,30.18,North,32767,-999.0,0.0,90,0.00,,,0.00,0,Wunderground v.1.15,2013-08-25 06:15:00,
2013-08-25 02:20:00,65.5,62.8,30.17,North,32767,-999.0,0.0,91,0.00,,,0.00,0,Wunderground v.1.15,2013-08-25 06:20:00,
2013-08-25 02:30:00,65.5,62.8,30.17,North,32767,-999.0,0.0,91,0.00,,,0.00,0,Wunderground v.1.15,2013-08-25 06:30:00,
2013-08-25 02:35:00,65.5,62.8,30.17,North,32767,-999.0,0.0,91,0.00,,,0.00,0,Wunderground v.1.15,2013-08-25 06:35:00,
2013-08-25 02:45:00,65.5,62.8,30.17,North,32767,-999.0,0.0,91,0.00,,,0.00,0,Wunderground v.1.15,2013-08-25 06:45:00,
2013-08-25 02:55:00,65.3,62.6,30.17,North,32767,-999.0,0.0,91,0.00,,,0.00,0,Wunderground v.1.15,2013-08-25 06:55:00,
2013-08-25 03:05:00,65.2,62.8,30.17,North,32767,-999.0,0.0,92,0.00,,,0.00,0,Wunderground v.1.15,2013-08-25 07:05:00,
2013-08-25 03:10:00,65.2,62.8,30.17,North,32767,-999.0,0.0,92,0.00,,,0.00,0,Wunderground v.1.15,2013-08-25 07:10:00,
2013-08-25 03:20:00,65.0,62.6,30.17,North,32767,-999.0,0.0,92,0.00,,,0.00,0,Wunderground v.1.15,2013-08-25 07:20:00,
2013-08-25 03:25:00,65.0,62.6,30.17,North,32767,-999.0,0.0,92,0.00,,,0.00,0,Wunderground v.1.15,2013-08-25 07:25:00,
2013-08-25 03:35:00,64.8,62.4,30.17,North,32767,-999.0,0.0,92,0.00,,,0.00,0,Wunderground v.1.15,2013-08-25 07:35:00,
2013-08-25 03:45:00,64.7,62.6,30.17,North,32767,-999.0,0.0,93,0.00,,,0.00,0,Wunderground v.1.15,2013-08-25 07:45:00,
2013-08-25 03:55:00,64.5,62.4,30.17,North,32767,-999.0,0.0,93,0.00,,,0.00,0,Wunderground v.1.15,2013-08-25 07:55:00,
2013-08-25 04:00:00,64.5,62.4,30.17,North,32767,-999.0,0.0,93,0.00,,,0.00,0,Wunderground v.1.15,2013-08-25 08:00:00,
2013-08-25 04:05:00,64.5,62.4,30.17,North,32767,-999.0,0.0,93,0.00,,,0.00,0,Wunderground v.1.15,2013-08-25 08:05:00,
2013-08-25 04:15:00,64.3,62.2,30.17,North,32767,-999.0,0.0,93,0.00,,,0.00,0,Wunderground v.1.15,2013-08-25 08:15:00,
2013-08-25 04:25:00,64.3,62.2,30.17,North,32767,-999.0,0.0,93,0.00,,,0.00,0,Wunderground v.1.15,2013-08-25 08:25:00,
2013-08-25 04:35:00,64.3,62.2,30.18,North,32767,-999.0,0.0,93,0.00,,,0.00,0,Wunderground v.1.15,2013-08-25 08:35:00,
2013-08-25 04:45:00,64.0,62.2,30.18,North,32767,-999.0,0.0,94,0.00,,,0.00,0,Wunderground v.1.15,2013-08-25 08:45:00,
2013-08-25 04:55:00,63.9,62.1,30.18,North,32767,-999.0,0.0,94,0.00,,,0.00,0,Wunderground v.1.15,2013-08-25 08:55:00,
2013-08-25 05:00:00,63.9,62.1,30.18,North,32767,-999.0,0.0,94,0.00,,,0.00,0,Wunderground v.1.15,2013-08-25 09:00:00,
2013-08-25 05:10:00,63.5,62.0,30.18,North,32767,-999.0,0.0,95,0.00,,,0.00,0,Wunderground v.1.15,2013-08-25 09:10:00,
2013-08-25 05:15:00,63.5,62.0,30.18,North,32767,-999.0,0.0,95,0.00,,,0.00,0,Wunderground v.1.15,2013-08-25 09:15:00,
2013-08-25 05:25:00,63.4,61.9,30.19,North,32767,-999.0,0.0,95,0.00,,,0.00,0,Wunderground v.1.15,2013-08-25 09:25:00,
2013-08-25 05:30:00,63.4,61.9,30.19,North,32767,-999.0,0.0,95,0.00,,,0.00,0,Wunderground v.1.15,2013-08-25 09:30:00,
2013-08-25 05:40:00,63.2,61.7,30.19,North,32767,-999.0,0.0,95,0.00,,,0.00,0,Wunderground v.1.15,2013-08-25 09:40:00,
2013-08-25 05:45:00,63.2,62.0,30.19,North,32767,-999.0,0.0,96,0.00,,,0.00,0,Wunderground v.1.15,2013-08-25 09:45:00,
2013-08-25 05:55:00,63.1,61.9,30.19,North,32767,-999.0,0.0,96,0.00,,,0.00,0,Wunderground v.1.15,2013-08-25 09:55:00,
2013-08-25 06:00:00,63.2,62.3,30.19,North,32767,-999.0,0.0,97,0.00,,,0.00,0,Wunderground v.1.15,2013-08-25 10:00:00,
2013-08-25 06:10:00,63.1,61.9,30.19,North,32767,-999.0,0.0,96,0.00,,,0.00,0,Wunderground v.1.15,2013-08-25 10:10:00,
2013-08-25 06:15:00,63.1,61.9,30.19,North,32767,-999.0,0.0,96,0.00,,,0.00,0,Wunderground v.1.15,2013-08-25 10:15:00,
2013-08-25 06:25:00,63.1,61.9,30.19,North,32767,-999.0,0.0,96,0.00,,,0.00,0,Wunderground v.1.15,2013-08-25 10:25:00,
2013-08-25 06:35:00,63.1,62.2,30.20,North,32767,-999.0,0.0,97,0.00,,,0.00,0,Wunderground v.1.15,2013-08-25 10:35:00,
2013-08-25 06:45:00,62.9,61.7,30.20,North,32767,-999.0,0.0,96,0.00,,,0.00,0,Wunderground v.1.15,2013-08-25 10:45:00,
2013-08-25 06:55:00,62.6,61.4,30.21,North,32767,-999.0,0.0,96,0.00,,,0.00,0,Wunderground v.1.15,2013-08-25 10:55:00,
2013-08-25 07:00:00,62.6,61.7,30.21,North,32767,-999.0,0.0,97,0.00,,,0.00,0,Wunderground v.1.15,2013-08-25 11:00:00,
2013-08-25 07:05:00,62.6,61.7,30.22,North,32767,-999.0,0.0,97,0.00,,,0.00,0,Wunderground v.1.15,2013-08-25 11:05:00,
2013-08-25 07:10:00,62.6,61.7,30.22,North,32767,-999.0,0.0,97,0.00,,,0.00,0,Wunderground v.1.15,2013-08-25 11:10:00,
2013-08-25 07:15:00,62.6,61.7,30.22,North,32767,-999.0,0.0,97,0.00,,,0.00,5,Wunderground v.1.15,2013-08-25 11:15:00,
2013-08-25 07:20:00,62.6,62.0,30.23,North,32767,-999.0,0.0,98,0.00,,,0.00,5,Wunderground v.1.15,2013-08-25 11:20:00,
2013-08-25 07:30:00,62.4,61.5,30.23,North,32767,-999.0,0.0,97,0.00,,,0.00,9,Wunderground v.1.15,2013-08-25 11:30:00,
2013-08-25 07:40:00,62.4,61.8,30.24,North,32767,-999.0,0.0,98,0.00,,,0.00,11,Wunderground v.1.15,2013-08-25 11:40:00,
2013-08-25 07:50:00,62.7,62.4,30.25,North,32767,-999.0,0.0,99,0.00,,,0.00,12,Wunderground v.1.15,2013-08-25 11:50:00,
2013-08-25 07:55:00,62.7,62.4,30.25,North,32767,-999.0,0.0,99,0.00,,,0.00,12,Wunderground v.1.15,2013-08-25 11:55:00,
2013-08-25 08:05:00,62.9,62.6,30.25,North,32767,-999.0,0.0,99,0.00,,,0.00,12,Wunderground v.1.15,2013-08-25 12:05:00,
2013-08-25 08:15:00,63.2,63.2,30.25,North,32767,-999.0,0.0,100,0.00,,,0.00,19,Wunderground v.1.15,2013-08-25 12:15:00,
2013-08-25 08:25:00,63.4,63.4,30.26,North,32767,-999.0,0.0,100,0.00,,,0.00,25,Wunderground v.1.15,2013-08-25 12:25:00,
2013-08-25 08:35:00,63.9,63.9,30.26,North,32767,-999.0,0.0,100,0.00,,,0.00,25,Wunderground v.1.15,2013-08-25 12:35:00,
2013-08-25 08:40:00,64.0,62.8,30.26,North,32767,-999.0,0.0,96,0.00,,,0.00,26,Wunderground v.1.15,2013-08-25 12:40:00,
2013-08-25 08:45:00,64.3,63.1,30.26,North,32767,-999.0,0.0,96,0.00,,,0.00,26,Wunderground v.1.15,2013-08-25 12:45:00,
2013-08-25 08:50:00,64.7,63.2,30.26,North,32767,-999.0,0.0,95,0.00,,,0.00,30,Wunderground v.1.15,2013-08-25 12:50:00,
2013-08-25 08:55:00,65.0,63.5,30.26,North,32767,-999.0,0.0,95,0.00,,,0.00,32,Wunderground v.1.15,2013-08-25 12:55:00,
2013-08-25 09:05:00,65.5,63.7,30.26,North,32767,-999.0,0.0,94,0.00,,,0.00,33,Wunderground v.1.15,2013-08-25 13:05:00,
2013-08-25 09:10:00,65.5,63.7,30.26,North,32767,-999.0,0.0,94,0.00,,,0.00,35,Wunderground v.1.15,2013-08-25 13:10:00,
2013-08-25 09:15:00,66.0,64.2,30.26,North,32767,-999.0,0.0,94,0.00,,,0.00,39,Wunderground v.1.15,2013-08-25 13:15:00,
2013-08-25 09:25:00,66.4,63.4,30.26,North,4,0.0,0.0,90,0.00,,,0.00,40,Wunderground v.1.15,2013-08-25 13:25:00,
2013-08-25 09:30:00,66.9,63.9,30.26,SSW,198,0.0,0.0,90,0.00,,,0.00,40,Wunderground v.1.15,2013-08-25 13:30:00,
2013-08-25 09:40:00,67.6,62.6,30.26,South,184,0.0,0.0,84,0.00,,,0.00,46,Wunderground v.1.15,2013-08-25 13:40:00,
2013-08-25 09:45:00,67.9,62.9,30.26,West,260,0.0,0.0,84,0.00,,,0.00,51,Wunderground v.1.15,2013-08-25 13:45:00,
2013-08-25 09:50:00,68.3,62.6,30.27,North,353,0.0,0.0,82,0.00,,,0.00,49,Wunderground v.1.15,2013-08-25 13:50:00,
2013-08-25 10:00:00,69.1,63.4,30.27,East,97,0.0,0.0,82,0.00,,,0.00,58,Wunderground v.1.15,2013-08-25 14:00:00,
2013-08-25 10:10:00,69.4,62.6,30.27,North,359,0.0,0.0,79,0.00,,,0.00,60,Wunderground v.1.15,2013-08-25 14:10:00,
2013-08-25 10:15:00,69.8,63.0,30.27,North,357,0.0,0.0,79,0.00,,,0.00,60,Wunderground v.1.15,2013-08-25 14:15:00,
2013-08-25 10:25:00,70.1,62.9,30.27,South,184,0.0,0.0,78,0.00,,,0.00,69,Wunderground v.1.15,2013-08-25 14:25:00,
2013-08-25 10:35:00,70.4,62.8,30.27,South,186,0.0,0.0,77,0.00,,,0.00,76,Wunderground v.1.15,2013-08-25 14:35:00,
2013-08-25 10:40:00,70.6,63.8,30.27,NW,304,0.0,0.0,79,0.00,,,0.00,76,Wunderground v.1.15,2013-08-25 14:40:00,
2013-08-25 10:50:00,70.8,62.1,30.27,North,0,0.0,0.0,74,0.00,,,0.00,97,Wunderground v.1.15,2013-08-25 14:50:00,
2013-08-25 10:55:00,71.1,62.8,30.27,North,0,0.0,0.0,75,0.00,,,0.00,146,Wunderground v.1.15,2013-08-25 14:55:00,
2013-08-25 11:00:00,71.3,63.0,30.27,NW,320,0.0,0.0,75,0.00,,,0.00,90,Wunderground v.1.15,2013-08-25 15:00:00,
2013-08-25 11:10:00,71.6,62.1,30.27,SSE,158,0.0,0.0,72,0.00,,,0.00,76,Wunderground v.1.15,2013-08-25 15:10:00,
2013-08-25 11:15:00,71.8,61.9,30.27,NE,34,0.0,0.0,71,0.00,,,0.00,179,Wunderground v.1.15,2013-08-25 15:15:00,
2013-08-25 11:20:00,72.1,62.6,30.27,NE,34,0.0,0.0,72,0.00,,,0.00,120,Wunderground v.1.15,2013-08-25 15:20:00,
2013-08-25 11:30:00,72.1,62.6,30.27,East,93,0.0,0.0,72,0.00,,,0.00,79,Wunderground v.1.15,2013-08-25 15:30:00,
2013-08-25 11:35:00,72.1,62.6,30.26,North,1,0.0,0.0,72,0.00,,,0.00,79,Wunderground v.1.15,2013-08-25 15:35:00,
2013-08-25 11:40:00,72.1,62.2,30.26,North,0,0.0,0.0,71,0.00,,,0.00,107,Wunderground v.1.15,2013-08-25 15:40:00,
2013-08-25 11:45:00,72.3,62.8,30.26,NE,45,0.0,0.0,72,0.00,,,0.00,44,Wunderground v.1.15,2013-08-25 15:45:00,
2013-08-25 11:50:00,72.3,62.8,30.26,NW,319,0.0,0.0,72,0.00,,,0.00,106,Wunderground v.1.15,2013-08-25 15:50:00,
2013-08-25 12:00:00,72.7,61.9,30.26,NNE,13,0.0,0.0,69,0.00,,,0.00,116,Wunderground v.1.15,2013-08-25 16:00:00,
2013-08-25 12:05:00,72.8,61.6,30.25,NNE,16,0.0,0.0,68,0.00,,,0.00,116,Wunderground v.1.15,2013-08-25 16:05:00,
2013-08-25 12:10:00,73.0,61.8,30.25,NNW,339,0.0,0.0,68,0.00,,,0.00,81,Wunderground v.1.15,2013-08-25 16:10:00,
2013-08-25 12:20:00,73.3,61.7,30.24,ENE,72,0.0,0.0,67,0.00,,,0.00,120,Wunderground v.1.15,2013-08-25 16:20:00,
2013-08-25 12:25:00,73.7,61.2,30.24,East,79,0.0,0.0,65,0.00,,,0.00,143,Wunderground v.1.15,2013-08-25 16:25:00,
2013-08-25 12:30:00,73.9,61.0,30.24,NW,313,0.0,0.0,64,0.00,,,0.00,155,Wunderground v.1.15,2013-08-25 16:30:00,
2013-08-25 12:40:00,74.6,61.6,30.24,South,189,0.0,0.0,64,0.00,,,0.00,190,Wunderground v.1.15,2013-08-25 16:40:00,
2013-08-25 12:45:00,74.7,62.6,30.24,North,359,0.0,0.0,66,0.00,,,0.00,190,Wunderground v.1.15,2013-08-25 16:45:00,
2013-08-25 12:55:00,75.1,62.1,30.24,North,0,0.0,0.0,64,0.00,,,0.00,118,Wunderground v.1.15,2013-08-25 16:55:00,
2013-08-25 13:00:00,74.9,61.9,30.24,WNW,289,0.0,0.0,64,0.00,,,0.00,118,Wunderground v.1.15,2013-08-25 17:00:00,
2013-08-25 13:05:00,74.7,61.7,30.24,North,3,0.0,0.0,64,0.00,,,0.00,111,Wunderground v.1.15,2013-08-25 17:05:00,
2013-08-25 13:15:00,74.4,61.4,30.24,West,274,0.0,0.0,64,0.00,,,0.00,130,Wunderground v.1.15,2013-08-25 17:15:00,
2013-08-25 13:20:00,74.6,61.2,30.23,North,357,0.0,0.0,63,0.00,,,0.00,111,Wunderground v.1.15,2013-08-25 17:20:00,
2013-08-25 13:25:00,74.6,60.3,30.23,North,357,0.0,0.0,61,0.00,,,0.00,111,Wunderground v.1.15,2013-08-25 17:25:00,
2013-08-25 13:30:00,74.9,60.1,30.23,NNE,17,0.0,0.0,60,0.00,,,0.00,111,Wunderground v.1.15,2013-08-25 17:30:00,
2013-08-25 13:35:00,75.1,61.2,30.23,NE,45,0.0,0.0,62,0.00,,,0.00,362,Wunderground v.1.15,2013-08-25 17:35:00,
2013-08-25 13:45:00,75.3,61.4,30.23,NE,44,0.0,0.0,62,0.00,,,0.00,341,Wunderground v.1.15,2013-08-25 17:45:00,
2013-08-25 13:55:00,75.4,61.5,30.23,NW,319,0.0,0.0,62,0.00,,,0.00,472,Wunderground v.1.15,2013-08-25 17:55:00,
2013-08-25 14:05:00,75.8,60.9,30.22,NE,44,0.0,0.0,60,0.00,,,0.00,609,Wunderground v.1.15,2013-08-25 18:05:00,
2013-08-25 14:10:00,76.0,60.6,30.22,ESE,121,0.0,0.0,59,0.00,,,0.00,491,Wunderground v.1.15,2013-08-25 18:10:00,
2013-08-25 14:20:00,76.0,60.2,30.22,ENE,71,0.0,0.0,58,0.00,,,0.00,691,Wunderground v.1.15,2013-08-25 18:20:00,
2013-08-25 14:25:00,76.3,61.9,30.22,East,89,0.0,0.0,61,0.00,,,0.00,691,Wunderground v.1.15,2013-08-25 18:25:00,
2013-08-25 14:35:00,76.5,60.6,30.22,North,0,0.0,0.0,58,0.00,,,0.00,572,Wunderground v.1.15,2013-08-25 18:35:00,
2013-08-25 14:45:00,76.7,61.8,30.22,ENE,62,0.0,0.0,60,0.00,,,0.00,713,Wunderground v.1.15,2013-08-25 18:45:00,
2013-08-25 14:50:00,76.5,59.6,30.21,North,349,0.0,0.0,56,0.00,,,0.00,713,Wunderground v.1.15,2013-08-25 18:50:00,
2013-08-25 14:55:00,76.1,59.3,30.21,North,353,0.0,0.0,56,0.00,,,0.00,109,Wunderground v.1.15,2013-08-25 18:55:00,
2013-08-25 15:05:00,76.1,59.3,30.21,NNE,18,0.0,0.0,56,0.00,,,0.00,125,Wunderground v.1.15,2013-08-25 19:05:00,
2013-08-25 15:15:00,76.1,59.3,30.21,NE,35,0.0,0.0,56,0.00,,,0.00,107,Wunderground v.1.15,2013-08-25 19:15:00,
2013-08-25 15:25:00,76.1,59.8,30.20,NNW,346,0.0,0.0,57,0.00,,,0.00,104,Wunderground v.1.15,2013-08-25 19:25:00,
2013-08-25 15:30:00,76.1,59.8,30.20,NNW,346,0.0,0.0,57,0.00,,,0.00,100,Wunderground v.1.15,2013-08-25 19:30:00,
2013-08-25 15:35:00,76.0,59.7,30.19,NNW,346,0.0,0.0,57,0.00,,,0.00,100,Wunderground v.1.15,2013-08-25 19:35:00,
2013-08-25 15:45:00,76.0,59.7,30.19,NNW,335,0.0,0.0,57,0.00,,,0.00,100,Wunderground v.1.15,2013-08-25 19:45:00,
2013-08-25 15:50:00,75.8,59.5,30.19,West,272,0.0,0.0,57,0.00,,,0.00,93,Wunderground v.1.15,2013-08-25 19:50:00,
2013-08-25 16:00:00,75.8,59.0,30.19,NNW,330,0.0,0.0,56,0.00,,,0.00,76,Wunderground v.1.15,2013-08-25 20:00:00,
2013-08-25 16:10:00,75.8,59.0,30.18,NNW,332,0.0,0.0,56,0.00,,,0.00,72,Wunderground v.1.15,2013-08-25 20:10:00,
2013-08-25 16:15:00,75.8,58.5,30.18,NNW,332,0.0,0.0,55,0.00,,,0.00,72,Wunderground v.1.15,2013-08-25 20:15:00,
2013-08-25 16:25:00,75.8,58.5,30.18,NW,323,0.0,0.0,55,0.00,,,0.00,72,Wunderground v.1.15,2013-08-25 20:25:00,
2013-08-25 16:35:00,75.8,59.5,30.18,North,32767,-999.0,0.0,57,0.00,,,0.00,70,Wunderground v.1.15,2013-08-25 20:35:00,
2013-08-25 16:45:00,75.6,58.8,30.18,North,32767,-999.0,0.0,56,0.00,,,0.00,60,Wunderground v.1.15,2013-08-25 20:45:00,
2013-08-25 16:50:00,75.6,57.8,30.18,West,280,0.0,0.0,54,0.00,,,0.00,62,Wunderground v.1.15,2013-08-25 20:50:00,
2013-08-25 16:55:00,75.6,59.3,30.18,WNW,285,0.0,0.0,57,0.00,,,0.00,62,Wunderground v.1.15,2013-08-25 20:55:00,
2013-08-25 17:00:00,75.6,58.8,30.18,WNW,302,0.0,0.0,56,0.00,,,0.00,60,Wunderground v.1.15,2013-08-25 21:00:00,
2013-08-25 17:05:00,75.6,58.3,30.18,WNW,302,0.0,0.0,55,0.00,,,0.00,60,Wunderground v.1.15,2013-08-25 21:05:00,
2013-08-25 17:15:00,75.6,59.8,30.18,North,32767,-999.0,0.0,58,0.00,,,0.00,53,Wunderground v.1.15,2013-08-25 21:15:00,
2013-08-25 17:20:00,75.6,58.8,30.18,North,32767,-999.0,0.0,56,0.00,,,0.00,48,Wunderground v.1.15,2013-08-25 21:20:00,
2013-08-25 17:30:00,75.3,58.5,30.18,North,32767,-999.0,0.0,56,0.00,,,0.00,48,Wunderground v.1.15,2013-08-25 21:30:00,
2013-08-25 17:40:00,75.3,58.5,30.18,North,32767,-999.0,0.0,56,0.00,,,0.00,46,Wunderground v.1.15,2013-08-25 21:40:00,
2013-08-25 17:50:00,75.3,59.0,30.18,North,32767,-999.0,0.0,57,0.00,,,0.00,67,Wunderground v.1.15,2013-08-25 21:50:00,
2013-08-25 17:55:00,75.3,59.0,30.18,North,32767,-999.0,0.0,57,0.00,,,0.00,67,Wunderground v.1.15,2013-08-25 21:55:00,
2013-08-25 18:05:00,75.1,59.3,30.18,North,32767,-999.0,0.0,58,0.00,,,0.00,26,Wunderground v.1.15,2013-08-25 22:05:00,
2013-08-25 18:10:00,75.1,59.8,30.18,North,32767,-999.0,0.0,59,0.00,,,0.00,26,Wunderground v.1.15,2013-08-25 22:10:00,
2013-08-25 18:15:00,74.9,60.1,30.18,North,32767,-999.0,0.0,60,0.00,,,0.00,40,Wunderground v.1.15,2013-08-25 22:15:00,
2013-08-25 18:25:00,74.4,59.6,30.18,North,32767,-999.0,0.0,60,0.00,,,0.00,40,Wunderground v.1.15,2013-08-25 22:25:00,
2013-08-25 18:35:00,73.9,60.1,30.18,North,32767,-999.0,0.0,62,0.00,,,0.00,23,Wunderground v.1.15,2013-08-25 22:35:00,
2013-08-25 18:40:00,73.7,58.9,30.18,North,32767,-999.0,0.0,60,0.00,,,0.00,16,Wunderground v.1.15,2013-08-25 22:40:00,
2013-08-25 18:45:00,73.5,59.2,30.18,North,32767,-999.0,0.0,61,0.00,,,0.00,16,Wunderground v.1.15,2013-08-25 22:45:00,
2013-08-25 18:55:00,73.2,58.9,30.18,North,32767,-999.0,0.0,61,0.00,,,0.00,11,Wunderground v.1.15,2013-08-25 22:55:00,
2013-08-25 19:05:00,73.0,58.8,30.18,North,32767,-999.0,0.0,61,0.00,,,0.00,11,Wunderground v.1.15,2013-08-25 23:05:00,
2013-08-25 19:15:00,72.3,58.5,30.18,North,32767,-999.0,0.0,62,0.00,,,0.00,7,Wunderground v.1.15,2013-08-25 23:15:00,
2013-08-25 19:25:00,72.0,59.2,30.17,North,32767,-999.0,0.0,64,0.00,,,0.00,7,Wunderground v.1.15,2013-08-25 23:25:00,
2013-08-25 19:30:00,71.6,58.8,30.17,North,32767,-999.0,0.0,64,0.00,,,0.00,7,Wunderground v.1.15,2013-08-25 23:30:00,
2013-08-25 19:40:00,71.5,61.2,30.17,North,32767,-999.0,0.0,70,0.00,,,0.00,0,Wunderground v.1.15,2013-08-25 23:40:00,
2013-08-25 19:45:00,70.9,61.4,30.17,North,32767,-999.0,0.0,72,0.00,,,0.00,0,Wunderground v.1.15,2013-08-25 23:45:00,
2013-08-25 19:55:00,70.6,60.7,30.17,North,32767,-999.0,0.0,71,0.00,,,0.00,0,Wunderground v.1.15,2013-08-25 23:55:00,
2013-08-25 20:05:00,70.3,60.8,30.18,North,32767,-999.0,0.0,72,0.00,,,0.00,0,Wunderground v.1.15,2013-08-26 00:05:00,
2013-08-25 20:15:00,69.4,59.6,30.18,North,32767,-999.0,0.0,71,0.00,,,0.00,0,Wunderground v.1.15,2013-08-26 00:15:00,
2013-08-25 20:25:00,68.9,58.7,30.18,North,32767,-999.0,0.0,70,0.00,,,0.00,0,Wunderground v.1.15,2013-08-26 00:25:00,
2013-08-25 20:35:00,68.8,60.6,30.17,North,32767,-999.0,0.0,75,0.00,,,0.00,0,Wunderground v.1.15,2013-08-26 00:35:00,
2013-08-25 20:45:00,68.3,60.1,30.17,North,32767,-999.0,0.0,75,0.00,,,0.00,0,Wunderground v.1.15,2013-08-26 00:45:00,
2013-08-25 20:50:00,68.3,60.1,30.18,North,32767,-999.0,0.0,75,0.00,,,0.00,0,Wunderground v.1.15,2013-08-26 00:50:00,
2013-08-25 21:00:00,67.8,60.3,30.18,North,32767,-999.0,0.0,77,0.00,,,0.00,0,Wunderground v.1.15,2013-08-26 01:00:00,
2013-08-25 21:05:00,67.6,60.1,30.18,North,32767,-999.0,0.0,77,0.00,,,0.00,0,Wunderground v.1.15,2013-08-26 01:05:00,
2013-08-25 21:10:00,67.4,59.9,30.18,North,32767,-999.0,0.0,77,0.00,,,0.00,0,Wunderground v.1.15,2013-08-26 01:10:00,
2013-08-25 21:15:00,67.4,60.3,30.18,North,32767,-999.0,0.0,78,0.00,,,0.00,0,Wunderground v.1.15,2013-08-26 01:15:00,
2013-08-25 21:20:00,67.3,60.2,30.18,North,32767,-999.0,0.0,78,0.00,,,0.00,0,Wunderground v.1.15,2013-08-26 01:20:00,
2013-08-25 21:30:00,67.1,60.0,30.18,North,32767,-999.0,0.0,78,0.00,,,0.00,0,Wunderground v.1.15,2013-08-26 01:30:00,
2013-08-25 21:35:00,67.1,60.0,30.18,North,32767,-999.0,0.0,78,0.00,,,0.00,0,Wunderground v.1.15,2013-08-26 01:35:00,
2013-08-25 21:45:00,66.9,59.5,30.18,North,32767,-999.0,0.0,77,0.00,,,0.00,0,Wunderground v.1.15,2013-08-26 01:45:00,
2013-08-25 21:50:00,66.8,59.4,30.18,North,32767,-999.0,0.0,77,0.00,,,0.00,0,Wunderground v.1.15,2013-08-26 01:50:00,
2013-08-25 22:00:00,66.6,59.5,30.18,North,32767,-999.0,0.0,78,0.00,,,0.00,0,Wunderground v.1.15,2013-08-26 02:00:00,
2013-08-25 22:05:00,66.6,59.5,30.18,North,32767,-999.0,0.0,78,0.00,,,0.00,0,Wunderground v.1.15,2013-08-26 02:05:00,
2013-08-25 22:10:00,66.4,59.3,30.18,North,32767,-999.0,0.0,78,0.00,,,0.00,0,Wunderground v.1.15,2013-08-26 02:10:00,
2013-08-25 22:20:00,66.1,59.4,30.19,North,32767,-999.0,0.0,79,0.00,,,0.00,0,Wunderground v.1.15,2013-08-26 02:20:00,
2013-08-25 22:25:00,66.0,59.7,30.19,North,32767,-999.0,0.0,80,0.00,,,0.00,0,Wunderground v.1.15,2013-08-26 02:25:00,
2013-08-25 22:35:00,66.0,60.3,30.19,North,32767,-999.0,0.0,82,0.00,,,0.00,0,Wunderground v.1.15,2013-08-26 02:35:00,
2013-08-25 22:45:00,65.6,59.6,30.19,North,32767,-999.0,0.0,81,0.00,,,0.00,0,Wunderground v.1.15,2013-08-26 02:45:00,
2013-08-25 22:55:00,65.5,59.9,30.20,North,32767,-999.0,0.0,82,0.00,,,0.00,0,Wunderground v.1.15,2013-08-26 02:55:00,
2013-08-25 23:00:00,65.5,59.9,30.20,North,32767,-999.0,0.0,82,0.00,,,0.00,0,Wunderground v.1.15,2013-08-26 03:00:00,
2013-08-25 23:10:00,65.2,59.9,30.19,North,32767,-999.0,0.0,83,0.00,,,0.00,0,Wunderground v.1.15,2013-08-26 03:10:00,
2013-08-25 23:15:00,65.2,59.9,30.19,North,32767,-999.0,0.0,83,0.00,,,0.00,0,Wunderground v.1.15,2013-08-26 03:15:00,
2013-08-25 23:25:00,65.0,59.7,30.19,North,32767,-999.0,0.0,83,0.00,,,0.00,0,Wunderground v.1.15,2013-08-26 03:25:00,
2013-08-25 23:30:00,64.8,59.9,30.19,North,32767,-999.0,0.0,84,0.00,,,0.00,0,Wunderground v.1.15,2013-08-26 03:30:00,
2013-08-25 23:40:00,64.5,59.9,30.20,North,32767,-999.0,0.0,85,0.00,,,0.00,0,Wunderground v.1.15,2013-08-26 03:40:00,
2013-08-25 23:50:00,64.3,59.7,30.20,North,32767,-999.0,0.0,85,0.00,,,0.00,0,Wunderground v.1.15,2013-08-26 03:50:00,
2013-08-25 23:55:00,64.3,59.7,30.20,North,32767,-999.0,0.0,85,0.00,,,0.00,0,Wunderground v.1.15,2013-08-26 03:55:00,